• In Austria
  • List of Countries
  • For 7 days
  • Water Temperature
  • Satellite Maps
  • Weather Map
  • News
  • Weather Widgets
  • user-avatar
    Login

    Hourly Weather Luanda

    Today, 18 December, Monday

    Time Temperature Precipitation Wind Pressure Humidity
    00:00 +27°C° 0.1 mm 3 mps 754 mmHg 90%
    01:00 +27°C° 0 mm 3 mps 754 mmHg 91%
    02:00 +27°C° 0.1 mm 3 mps 753 mmHg 92%
    03:00 +27°C° 0.1 mm 2 mps 753 mmHg 92%
    04:00 +26°C° 0.1 mm 2 mps 753 mmHg 92%
    05:00 +27°C° 0.1 mm 2 mps 753 mmHg 91%
    06:00 +27°C° 0.1 mm 2 mps 753 mmHg 89%
    07:00 +27°C° 0.1 mm 2 mps 754 mmHg 88%
    08:00 +28°C° 0.1 mm 2 mps 754 mmHg 82%
    09:00 +29°C° 0.1 mm 2 mps 754 mmHg 76%
    10:00 +30°C° 0.1 mm 2 mps 754 mmHg 70%
    11:00 +31°C° 0 mm 3 mps 753 mmHg 66%
    12:00 +33°C° 0 mm 4 mps 753 mmHg 62%
    13:00 +34°C° 0 mm 4 mps 752 mmHg 58%
    14:00 +33°C° 0 mm 5 mps 752 mmHg 60%
    15:00 +33°C° 0 mm 5 mps 751 mmHg 62%
    16:00 +32°C° 0 mm 5 mps 751 mmHg 63%
    17:00 +30°C° 0 mm 5 mps 751 mmHg 70%
    18:00 +29°C° 0 mm 4 mps 752 mmHg 77%
    19:00 +27°C° 0 mm 4 mps 752 mmHg 83%
    20:00 +27°C° 0 mm 4 mps 752 mmHg 84%
    21:00 +27°C° 0 mm 3 mps 753 mmHg 85%
    22:00 +27°C° 0 mm 3 mps 754 mmHg 87%
    23:00 +26°C° 0 mm 3 mps 753 mmHg 87%

    Tomorrow, 19 December, Tuesday

    Time Temperature Precipitation Wind Pressure Humidity
    00:00 +26°C° 0 mm 2 mps 753 mmHg 87%
    01:00 +26°C° 0 mm 2 mps 753 mmHg 87%
    02:00 +26°C° 0 mm 2 mps 753 mmHg 87%
    03:00 +26°C° 0 mm 1 mps 753 mmHg 87%
    04:00 +26°C° 0 mm 1 mps 752 mmHg 87%
    05:00 +26°C° 0 mm 1 mps 753 mmHg 87%
    06:00 +26°C° 0 mm 1 mps 753 mmHg 86%
    07:00 +26°C° 0 mm 1 mps 753 mmHg 86%
    08:00 +27°C° 0.2 mm 1 mps 753 mmHg 83%
    09:00 +28°C° 0.2 mm 1 mps 754 mmHg 80%
    10:00 +28°C° 0.2 mm 1 mps 754 mmHg 77%
    11:00 +28°C° 0.3 mm 1 mps 754 mmHg 76%
    12:00 +28°C° 0.3 mm 1 mps 753 mmHg 75%
    13:00 +29°C° 0.3 mm 1 mps 753 mmHg 74%
    14:00 +28°C° 0.2 mm 1 mps 753 mmHg 75%
    15:00 +28°C° 0.2 mm 1 mps 752 mmHg 75%
    16:00 +28°C° 0.2 mm 1 mps 752 mmHg 76%
    17:00 +27°C° 0 mm 1 mps 752 mmHg 79%
    18:00 +27°C° 0 mm 1 mps 752 mmHg 82%
    19:00 +24°C° 0 mm 0 mps 753 mmHg 85%
    20:00 +24°C° 0 mm 0 mps 753 mmHg 86%
    21:00 +24°C° 0 mm 0 mps 753 mmHg 87%
    22:00 +24°C° 0 mm 0 mps 754 mmHg 88%
    23:00 +24°C° 0.1 mm 0 mps 754 mmHg 88%

    Day after tomorrow, 20 December, Wednesday

    Time Temperature Precipitation Wind Pressure Humidity
    00:00 +24°C° 0.1 mm 0 mps 753 mmHg 89%
    01:00 +25°C° 0.1 mm 1 mps 753 mmHg 90%
    02:00 +25°C° 0.2 mm 1 mps 753 mmHg 90%
    03:00 +25°C° 0.2 mm 1 mps 752 mmHg 91%
    04:00 +25°C° 0.2 mm 1 mps 752 mmHg 92%
    05:00 +25°C° 0.1 mm 1 mps 752 mmHg 90%
    06:00 +25°C° 0.1 mm 1 mps 753 mmHg 89%
    07:00 +26°C° 0.1 mm 1 mps 753 mmHg 88%
    08:00 +28°C° 0 mm 1 mps 753 mmHg 79%
    09:00 +27°C° 0 mm 0 mps 754 mmHg 69%
    10:00 +29°C° 0 mm 0 mps 754 mmHg 60%
    11:00 +32°C° 0 mm 1 mps 753 mmHg 56%
    12:00 +34°C° 0 mm 2 mps 753 mmHg 52%
    13:00 +35°C° 0 mm 3 mps 752 mmHg 48%
    14:00 +34°C° 0 mm 3 mps 752 mmHg 52%
    15:00 +33°C° 0 mm 3 mps 752 mmHg 55%
    16:00 +33°C° 0 mm 4 mps 751 mmHg 59%
    17:00 +30°C° 0 mm 4 mps 752 mmHg 65%
    18:00 +29°C° 0 mm 4 mps 752 mmHg 71%
    19:00 +28°C° 0 mm 3 mps 752 mmHg 76%
    20:00 +28°C° 0 mm 3 mps 753 mmHg 78%
    21:00 +27°C° 0 mm 3 mps 754 mmHg 79%
    22:00 +27°C° 0 mm 3 mps 754 mmHg 80%
    23:00 +27°C° 0 mm 2 mps 754 mmHg 82%

    21 December, Thursday

    Time Temperature Precipitation Wind Pressure Humidity
    00:00 +27°C° 0 mm 2 mps 754 mmHg 83%
    01:00 +26°C° 0 mm 1 mps 753 mmHg 85%
    02:00 +26°C° 0 mm 1 mps 753 mmHg 86%
    03:00 +26°C° 0 mm 1 mps 753 mmHg 88%
    04:00 +26°C° 0 mm 1 mps 753 mmHg 89%
    05:00 +26°C° 0 mm 1 mps 753 mmHg 87%
    06:00 +26°C° 0 mm 1 mps 754 mmHg 85%
    07:00 +27°C° 0 mm 1 mps 754 mmHg 83%
    08:00 +29°C° 0 mm 1 mps 754 mmHg 74%
    09:00 +31°C° 0 mm 1 mps 755 mmHg 64%
    10:00 +33°C° 0 mm 1 mps 755 mmHg 55%
    11:00 +35°C° 0 mm 2 mps 754 mmHg 53%
    12:00 +35°C° 0 mm 3 mps 753 mmHg 51%
    13:00 +36°C° 0 mm 4 mps 753 mmHg 49%
    14:00 +35°C° 0 mm 4 mps 752 mmHg 54%
    15:00 +34°C° 0 mm 5 mps 752 mmHg 59%
    16:00 +32°C° 0 mm 5 mps 751 mmHg 64%
    17:00 +30°C° 0 mm 4 mps 752 mmHg 68%
    18:00 +29°C° 0 mm 4 mps 752 mmHg 73%
    19:00 +28°C° 0 mm 4 mps 753 mmHg 78%
    20:00 +28°C° 0 mm 3 mps 753 mmHg 79%
    21:00 +28°C° 0 mm 3 mps 754 mmHg 80%
    22:00 +27°C° 0 mm 3 mps 755 mmHg 81%
    23:00 +27°C° 0 mm 3 mps 754 mmHg 82%

    22 December, Friday

    Time Temperature Precipitation Wind Pressure Humidity
    00:00 +27°C° 0 mm 3 mps 754 mmHg 83%
    01:00 +27°C° 0 mm 3 mps 754 mmHg 84%
    02:00 +27°C° 0 mm 3 mps 753 mmHg 86%
    03:00 +26°C° 0 mm 3 mps 753 mmHg 87%
    04:00 +26°C° 0 mm 2 mps 753 mmHg 88%
    05:00 +26°C° 0 mm 2 mps 753 mmHg 87%
    06:00 +27°C° 0 mm 2 mps 754 mmHg 86%
    07:00 +27°C° 0 mm 2 mps 754 mmHg 84%
    08:00 +28°C° 0 mm 2 mps 754 mmHg 79%
    09:00 +29°C° 0 mm 2 mps 754 mmHg 73%
    10:00 +30°C° 0 mm 2 mps 754 mmHg 67%
    11:00 +31°C° 0 mm 2 mps 754 mmHg 64%
    12:00 +33°C° 0 mm 3 mps 753 mmHg 61%
    13:00 +34°C° 0 mm 3 mps 752 mmHg 57%
    14:00 +33°C° 0 mm 4 mps 752 mmHg 59%
    15:00 +33°C° 0 mm 4 mps 752 mmHg 60%
    16:00 +33°C° 0 mm 5 mps 751 mmHg 62%
    17:00 +30°C° 0 mm 4 mps 751 mmHg 68%
    18:00 +29°C° 0 mm 4 mps 752 mmHg 73%
    19:00 +27°C° 0 mm 4 mps 752 mmHg 79%
    20:00 +27°C° 0 mm 4 mps 753 mmHg 80%
    21:00 +27°C° 0 mm 4 mps 753 mmHg 81%
    22:00 +27°C° 0 mm 4 mps 754 mmHg 82%
    23:00 +27°C° 0 mm 3 mps 753 mmHg 83%

    23 December, Saturday

    Time Temperature Precipitation Wind Pressure Humidity
    00:00 +27°C° 0 mm 3 mps 753 mmHg 83%
    01:00 +27°C° 0 mm 3 mps 753 mmHg 83%
    02:00 +27°C° 0 mm 3 mps 753 mmHg 84%
    03:00 +26°C° 0 mm 3 mps 752 mmHg 84%
    04:00 +26°C° 0 mm 3 mps 752 mmHg 85%
    05:00 +27°C° 0 mm 3 mps 753 mmHg 83%
    06:00 +27°C° 0 mm 3 mps 753 mmHg 82%
    07:00 +27°C° 0 mm 2 mps 753 mmHg 81%
    08:00 +28°C° 0 mm 2 mps 754 mmHg 75%
    09:00 +29°C° 0 mm 2 mps 754 mmHg 68%
    10:00 +30°C° 0 mm 2 mps 754 mmHg 62%
    11:00 +31°C° 0 mm 3 mps 753 mmHg 60%
    12:00 +33°C° 0 mm 4 mps 752 mmHg 58%
    13:00 +33°C° 0 mm 4 mps 752 mmHg 56%
    14:00 +33°C° 0 mm 5 mps 751 mmHg 59%
    15:00 +32°C° 0 mm 5 mps 751 mmHg 62%
    16:00 +32°C° 0 mm 5 mps 750 mmHg 64%
    17:00 +29°C° 0 mm 4 mps 751 mmHg 69%
    18:00 +28°C° 0 mm 4 mps 751 mmHg 74%
    19:00 +27°C° 0 mm 4 mps 752 mmHg 79%
    20:00 +27°C° 0 mm 4 mps 752 mmHg 81%
    21:00 +26°C° 0 mm 4 mps 753 mmHg 82%
    22:00 +26°C° 0 mm 3 mps 753 mmHg 84%
    23:00 +26°C° 0 mm 3 mps 753 mmHg 84%
    Show more